User: anonymous   Login
Location: *
(17.3280°S, 114.7300°W)
Time: 11:38:28
(UTC+00:00)
Language:

NOSS 3-4 (A) - Orbit

View from above orbital plane
View from above orbital plane
View from above satellite
View from above satellite

Ground track
Ground track

The orbit data is extracted from the following two-line orbital elements,

1 31701U 07027A   20293.73369236 0.00000000  00000-0  00000-0 0    06
2 31701  63.3997 209.8550 0293564  19.5778 340.4222 13.40807243    05
Epoch (UTC): 19 October 2020 17:36:31
Eccentricity: 0.0293564
inclination: 63.3997°
perigee height: 886 km
apogee height: 1326 km
right ascension of ascending node: 209.8550°
argument of perigee: 19.5778°
revolutions per day: 13.40807243
mean anomaly at epoch: 340.4222°
orbit number at epoch: 0

The dashed part of the orbit path shows where the satellite is in the earth's shadow,  

DLR